Location: ?
(35.4996°N, 139.3166°E)
Time: 06:19:17
(UTC+00:00)

Cosmos 1484 Rocket - Visible Passes

Search period start: 16 July 2024 00:00
Search period end: 26 July 2024 00:00
Orbit: 479 x 520 km, 97.6° (Epoch: 15 July)

Date Brightness Start Highest point End Pass type
(mag) Time Alt. Az. Time Alt. Az. Time Alt. Az.
16 Jul 2.7 19:10:33 10° NNE 19:14:10 82° E 19:17:44 10° S visible
17 Jul 3.9 18:50:59 10° NNE 18:54:24 40° E 18:57:46 10° S visible
18 Jul 5.0 18:31:43 10° NE 18:34:33 22° E 18:37:22 10° SSE visible
19 Jul 5.6 18:13:14 10° ENE 18:14:39 12° E 18:16:03 10° ESE visible
21 Jul 2.9 19:05:22 10° NNE 19:08:56 67° E 19:12:28 10° S visible
22 Jul 4.2 18:45:48 10° NNE 18:49:04 33° E 18:52:19 10° SSE visible
23 Jul 5.2 18:26:36 10° NE 18:29:09 18° E 18:31:40 10° SE visible
